Tracking 34151 objects as of 20-May-2026
HD Live streaming from Space Station
objects crossing your sky now

HULIANWANG DIGUI-163

Track HULIANWANG DIGUI-163 now!
10-day predictions


NORAD ID: 68137
Int'l Code: 2026-047J
Perigee: 1,156.3 km
Apogee: 1,156.5 km
Inclination: 50.0 °
Period: 108.3 minutes
Semi major axis: 7527 km
RCS: Unknown
Launch date: March 12, 2026
Source: People's Republic of China (PRC)
Launch site: Wenchang Satellite Launch Center (WSC)
Your satellite tracking list
Your tracking list is empty




NASA's NSSDC Master Catalog

Two Line Element Set (TLE):
1 68137U 26047J   26140.72202669 -.00000115  00000-0  20103-4 0  9999
2 68137  50.0043 154.3337 0000131 355.0269   5.0602 13.29330323  9427
Source of the keplerian elements: AFSPC